GW5028 Weather Reports


time (UTC)temp
F
wind
direction
speed
knots
gust
knots
rain 1hr
in
rain 24hr
in
rain mn
in
humidity
%
barometer
mb
20260906105815 71 153 0.0 0.0 0.00 0.00 0.00 99 1014.6
20260906105311 71 160 0.0 0.0 0.00 0.00 0.00 99 1014.6
20260906104806 71 150 0.0 0.0 0.00 0.00 0.00 99 1014.7
20260906104305 71 149 0.0 0.0 0.00 0.00 0.00 99 1014.6
20260906103803 71 151 0.0 0.0 0.00 0.00 0.00 99 1014.7
20260906103303 71 134 0.0 0.0 0.00 0.00 0.00 99 1014.6
20260906102800 71 151 0.0 0.0 0.00 0.00 0.00 99 1014.5
20260906102258 70 154 0.0 0.0 0.00 0.00 0.00 99 1014.6
20260906101754 70 153 0.0 0.0 0.00 0.00 0.00 99 1014.4
20260906101253 70 152 0.0 0.0 0.00 0.00 0.00 99 1014.5
20260906100749 70 152 0.0 0.0 0.00 0.00 0.00 99 1014.3
20260906100248 71 151 0.0 0.0 0.00 0.00 0.00 99 1014.2
20260906095744 70 150 0.0 0.0 0.00 0.00 0.00 99 1014.1
20260906095239 70 150 0.0 0.0 0.00 0.00 0.00 99 1014.1
20260906094738 70 150 0.0 0.0 0.00 0.00 0.00 99 1014.2
20260906094233 69 147 0.0 0.0 0.00 0.00 0.00 99 1014.0
20260906093730 69 152 0.0 0.0 0.00 0.00 0.00 99 1014.1
20260906093225 68 152 0.0 0.0 0.00 0.00 0.00 99 1014.2
20260906092721 68 152 0.0 0.0 0.00 0.00 0.00 99 1014.3
20260906092220 68 152 0.0 0.0 0.00 0.00 0.00 99 1014.1
20260906091716 68 151 0.0 0.0 0.00 0.00 0.00 99 1013.9
20260906091212 68 150 0.0 0.0 0.00 0.00 0.00 99 1013.8
20260906090708 68 150 0.0 0.0 0.00 0.00 0.00 99 1013.6
20260906090207 68 150 0.0 0.0 0.00 0.00 0.00 99 1013.9
20260906085707 68 150 0.0 0.0 0.00 0.00 0.00 99 1014.1
20260906085206 68 153 0.0 0.0 0.00 0.00 0.00 99 1013.8
20260906084700 68 153 0.0 0.0 0.00 0.00 0.00 99 1013.5
20260906084155 68 153 0.0 0.0 0.00 0.00 0.00 99 1013.7
20260906083650 69 153 0.0 0.0 0.00 0.00 0.00 99 1013.7
20260906083145 69 150 0.0 0.0 0.00 0.00 0.00 99 1013.5
20260906082640 69 147 0.0 0.0 0.00 0.00 0.00 99 1013.6
20260906082136 69 150 0.0 0.0 0.00 0.00 0.00 99 1013.5
20260906081631 69 150 0.0 0.0 0.00 0.00 0.00 99 1013.4
20260906081127 69 155 0.0 0.0 0.00 0.00 0.00 99 1013.3
20260906080623 69 156 0.0 0.0 0.00 0.00 0.00 99 1013.4
20260906080119 69 159 0.0 0.0 0.00 0.00 0.00 99 1013.2
20260906075618 69 159 0.0 0.0 0.00 0.00 0.00 99 1013.3
20260906075113 69 159 0.0 0.0 0.00 0.00 0.00 99 1013.2
20260906074608 69 156 0.0 0.0 0.00 0.00 0.00 99 1013.2
20260906074108 69 150 0.0 0.0 0.00 0.00 0.00 99 1013.4
20260906073608 69 150 0.0 0.0 0.00 0.00 0.00 99 1013.2
20260906073104 69 148 0.0 0.0 0.00 0.00 0.00 99 1013.2
20260906072558 69 147 0.0 0.0 0.00 0.00 0.00 99 1013.3
20260906072055 69 148 0.0 0.0 0.00 0.00 0.00 99 1013.3
20260906071551 70 148 0.0 0.0 0.00 0.00 0.00 99 1013.5
20260906071051 70 148 0.0 0.0 0.00 0.00 0.00 99 1013.5
20260906070548 70 146 0.0 0.0 0.00 0.00 0.00 99 1013.5
20260906070043 70 148 0.0 0.0 0.00 0.00 0.00 99 1013.6
20260906065542 70 158 0.0 1.7 0.00 0.00 0.00 99 1013.7
20260906065038 69 151 0.0 0.0 0.00 0.00 0.00 99 1013.6
20260906064534 70 152 0.0 0.0 0.00 0.00 0.00 99 1013.8
20260906064028 70 147 0.0 0.0 0.00 0.00 0.00 99 1013.8
20260906063524 70 147 0.0 0.0 0.00 0.00 0.00 99 1013.9
20260906063019 69 157 0.0 0.0 0.00 0.00 0.00 99 1014.1
20260906062515 70 152 0.0 0.0 0.00 0.00 0.00 99 1013.9
20260906062009 70 148 0.0 0.0 0.00 0.00 0.00 99 1014.0
20260906061506 70 143 0.0 0.0 0.00 0.00 0.00 99 1014.0
20260906061005 70 157 0.0 0.0 0.00 0.00 0.00 99 1013.9
20260906060502 70 158 0.0 0.0 0.00 0.00 0.00 99 1013.9
20260906055958 70 160 0.0 0.0 0.00 0.00 0.00 99 1013.9
20260906055454 70 156 0.0 0.0 0.00 0.00 0.00 99 1013.9
20260906054949 70 159 0.0 0.0 0.00 0.00 0.00 98 1014.1
20260906054443 71 150 0.0 0.0 0.00 0.00 0.00 98 1014.0
20260906053939 71 138 0.9 1.7 0.00 0.00 0.00 98 1014.0
20260906053435 71 142 0.0 0.0 0.00 0.00 0.00 98 1014.0
20260906052931 71 155 0.0 0.0 0.00 0.00 0.00 98 1013.8
20260906052427 71 156 0.0 0.0 0.00 0.00 0.00 98 1013.8
20260906051924 71 152 0.0 0.0 0.00 0.00 0.00 98 1013.8
20260906051424 71 132 1.7 1.7 0.00 0.00 0.00 98 1014.0
20260906050919 71 159 0.0 0.0 0.00 0.00 0.00 98 1013.9
20260906050419 71 161 0.0 0.0 0.00 0.00 0.00 98 1014.0
20260906045918 71 148 0.0 0.0 0.00 0.00 0.00 98 1013.8
20260906045417 71 158 0.0 0.0 0.00 0.00 0.00 98 1014.0
20260906044913 71 176 0.0 0.0 0.00 0.00 0.00 98 1014.0
20260906044413 71 146 0.0 0.0 0.00 0.00 0.00 99 1013.8
20260906043909 71 159 0.0 0.0 0.00 0.00 0.00 99 1014.0
20260906043405 71 160 0.0 0.0 0.00 0.00 0.00 99 1014.1
20260906042900 71 154 0.0 0.0 0.00 0.00 0.00 99 1014.1
20260906042359 71 154 0.0 0.0 0.00 0.00 0.00 98 1013.9
20260906041855 71 154 0.0 0.0 0.00 0.00 0.00 99 1014.2
20260906041351 71 151 0.0 0.0 0.00 0.00 0.00 99 1014.1
20260906040851 71 151 0.0 0.0 0.00 0.00 0.00 99 1014.5
20260906040346 71 153 0.0 0.0 0.00 0.00 0.00 99 1014.3
20260906035841 71 155 0.0 0.0 0.00 0.00 0.00 99 1014.4
20260906035336 71 154 0.0 0.0 0.00 0.00 0.00 98 1014.4
20260906034832 71 159 0.0 0.0 0.00 0.00 0.00 98 1014.4
20260906034327 72 153 0.0 0.0 0.00 0.00 0.00 98 1014.5
20260906033822 72 153 0.0 0.0 0.00 0.00 0.00 98 1014.3
20260906033321 72 157 0.0 0.0 0.00 0.00 0.00 98 1014.4
20260906032818 72 157 0.0 0.0 0.00 0.00 0.00 98 1014.3
20260906032314 72 157 0.0 0.0 0.00 0.00 0.00 98 1014.3
20260906031809 72 154 0.0 0.0 0.00 0.00 0.00 98 1014.4
20260906031304 72 156 0.0 0.0 0.00 0.00 0.00 97 1014.3
20260906030804 72 156 0.0 0.0 0.00 0.00 0.00 97 1014.3
20260906030259 72 156 0.0 0.0 0.00 0.00 0.00 97 1014.4
20260906025758 72 156 0.0 0.0 0.00 0.00 0.00 97 1014.3
20260906025253 72 158 0.0 0.0 0.00 0.00 0.00 97 1014.3
20260906024752 72 161 0.0 0.0 0.00 0.00 0.00 97 1014.1
20260906024251 72 159 0.0 0.0 0.00 0.00 0.00 98 1014.4
20260906023747 72 157 0.0 0.9 0.00 0.00 0.00 97 1014.3
20260906023242 72 151 0.0 0.0 0.00 0.00 0.00 98 1014.3
20260906022738 72 144 0.0 0.9 0.00 0.00 0.00 98 1014.4
20260906022233 72 157 0.0 0.0 0.00 0.00 0.00 97 1014.2
20260906021729 73 150 0.0 0.0 0.00 0.00 0.00 97 1014.2
20260906021227 73 151 0.0 0.0 0.00 0.00 0.00 97 1014.3
20260906020722 73 151 0.0 0.0 0.00 0.00 0.00 97 1014.2
20260906020217 73 151 0.0 0.0 0.00 0.00 0.00 97 1014.0
20260906015712 73 151 0.0 0.0 0.00 0.00 0.00 97 1014.0
20260906015210 73 153 0.0 0.0 0.00 0.00 0.00 97 1014.2
20260906014704 73 154 0.0 0.0 0.00 0.00 0.00 97 1013.9
20260906014200 73 148 0.0 0.0 0.00 0.00 0.00 96 1014.0
20260906013656 73 143 0.0 0.0 0.00 0.00 0.00 96 1014.1
20260906013151 73 151 0.0 0.0 0.00 0.00 0.00 96 1014.3
20260906012651 73 157 0.0 0.0 0.00 0.00 0.00 96 1014.1
20260906012151 73 150 0.0 0.0 0.00 0.00 0.00 96 1013.7
20260906011647 73 156 0.0 0.0 0.00 0.00 0.00 96 1013.8
20260906011142 73 160 0.0 0.0 0.00 0.00 0.00 96 1013.7
20260906010637 73 151 0.0 0.0 0.00 0.00 0.00 95 1013.6
20260906010133 73 148 0.0 0.0 0.00 0.00 0.00 95 1013.7
20260906005633 73 151 0.0 0.0 0.00 0.00 0.00 94 1013.6
20260906005132 74 163 0.0 0.0 0.00 0.00 0.00 94 1013.6
20260906004632 74 150 0.0 0.0 0.00 0.00 0.00 94 1013.6
20260906004127 74 157 0.0 0.0 0.00 0.00 0.00 94 1013.6
20260906003622 74 147 0.0 0.0 0.00 0.00 0.00 93 1013.5
20260906003118 74 151 0.0 0.0 0.00 0.00 0.00 93 1013.5
20260906002613 74 151 0.0 0.0 0.00 0.00 0.00 93 1013.2
20260906002107 75 151 0.0 0.0 0.00 0.00 0.00 92 1013.1
20260906001602 75 154 0.0 0.0 0.00 0.00 0.00 92 1013.3
20260906001057 75 157 0.0 0.0 0.00 0.00 0.00 91 1013.1
20260906000553 75 151 0.0 0.0 0.00 0.00 0.00 90 1013.1
20260906000048 76 151 0.0 0.0 0.00 0.00 0.00 89 1013.3
20260905235547 76 151 0.0 0.0 0.00 0.00 0.00 88 1013.1
20260905235043 77 154 0.0 0.0 0.00 0.00 0.00 87 1013.0
20260905234538 77 154 0.0 0.0 0.00 0.00 0.00 86 1013.2
20260905234033 78 151 0.0 0.0 0.00 0.00 0.00 85 1013.2
20260905233532 78 154 0.0 0.0 0.00 0.00 0.00 84 1013.2
20260905233027 79 156 0.0 0.0 0.00 0.00 0.00 82 1013.4
20260905232522 80 157 0.0 0.0 0.00 0.00 0.00 81 1013.2
20260905232018 80 160 0.0 0.0 0.00 0.00 0.00 80 1013.0
20260905231513 81 161 0.0 0.0 0.00 0.00 0.00 80 1013.0
20260905231010 81 161 0.0 0.0 0.00 0.00 0.00 77 1013.0
20260905230508 82 157 0.0 0.9 0.00 0.00 0.00 77 1013.0
20260905230007 82 167 0.0 0.0 0.00 0.00 0.00 75 1013.0
20260905225502 82 163 0.0 0.0 0.00 0.00 0.00 75 1012.9
20260905224957 83 166 0.9 0.9 0.00 0.00 0.00 72 1013.2
20260905224452 83 180 0.9 1.7 0.00 0.00 0.00 71 1013.0
20260905223951 83 161 0.0 1.7 0.00 0.00 0.00 71 1013.1
20260905223449 84 165 0.0 2.6 0.00 0.00 0.00 70 1013.1
20260905222944 85 152 0.9 0.9 0.00 0.00 0.00 69 1013.0
20260905222444 83 171 0.9 0.9 0.00 0.00 0.00 71 1013.3
20260905221939 82 178 0.9 1.7 0.00 0.00 0.00 73 1013.1
20260905221436 83 164 1.7 1.7 0.00 0.00 0.00 73 1013.1
20260905220932 84 162 1.7 2.6 0.00 0.00 0.00 72 1013.2
20260905220428 84 200 2.6 2.6 0.00 0.00 0.00 69 1013.1
20260905215927 82 158 0.0 1.7 0.00 0.00 0.00 73 1013.1
20260905215422 81 181 0.9 2.6 0.00 0.00 0.00 74 1013.2
20260905214919 82 215 3.5 3.5 0.00 0.00 0.00 73 1013.4
20260905214414 82 253 1.7 2.6 0.00 0.00 0.00 73 1013.3
20260905213913 80 217 1.7 1.7 0.00 0.00 0.00 75 1013.3
20260905213410 80 160 0.9 2.6 0.00 0.00 0.00 76 1013.3
20260905212906 79 183 0.9 1.7 0.00 0.00 0.00 77 1013.2
20260905212400 80 172 1.7 3.5 0.00 0.00 0.00 77 1013.4
20260905211859 80 180 0.9 2.6 0.00 0.00 0.00 77 1013.4
20260905211355 80 256 2.6 5.2 0.00 0.00 0.00 78 1013.6
20260905210851 79 234 1.7 2.6 0.00 0.00 0.00 76 1013.5
20260905210350 80 174 1.7 2.6 0.00 0.00 0.00 77 1013.5
20260905205849 80 190 0.9 2.6 0.00 0.00 0.00 76 1013.6
20260905205344 79 230 3.5 5.2 0.00 0.00 0.00 77 1013.5
20260905204844 79 288 3.5 7.0 0.00 0.00 0.00 78 1013.6
20260905204340 80 157 0.0 3.5 0.00 0.00 0.00 77 1013.4
20260905203838 80 161 2.6 3.5 0.00 0.00 0.00 77 1013.5
20260905203335 80 272 3.5 5.2 0.00 0.00 0.00 78 1013.5
20260905202830 81 274 4.3 5.2 0.00 0.00 0.00 76 1013.3
20260905202325 81 122 1.7 2.6 0.00 0.00 0.00 77 1013.4
20260905201821 81 246 3.5 7.8 0.00 0.00 0.00 76 1013.5
20260905201316 82 195 1.7 6.1 0.00 0.00 0.00 75 1013.3
20260905200810 82 219 1.7 2.6 0.00 0.00 0.00 75 1013.6
20260905200306 82 188 0.9 2.6 0.00 0.00 0.00 74 1013.4
20260905195804 82 200 1.7 3.5 0.00 0.00 0.00 74 1013.3
20260905195259 80 171 0.9 1.7 0.00 0.00 0.00 77 1013.1
20260905194755 79 171 0.9 1.7 0.00 0.00 0.00 79 1013.3
20260905194254 79 157 1.7 2.6 0.00 0.00 0.00 81 1013.6
20260905193754 79 185 0.9 0.9 0.00 0.00 0.00 79 1013.8
20260905193249 78 178 1.7 1.7 0.00 0.00 0.00 81 1014.0
20260905192744 78 214 1.7 2.6 0.00 0.00 0.00 82 1014.2
20260905192241 78 196 0.9 3.5 0.00 0.00 0.00 82 1014.3
20260905191740 77 170 0.9 3.5 0.00 0.00 0.00 81 1014.1
20260905191238 77 156 0.9 1.7 0.00 0.00 0.00 83 1014.1
20260905190737 77 181 1.7 3.5 0.00 0.00 0.00 84 1014.2
20260905190236 77 191 1.7 2.6 0.00 0.00 0.00 83 1013.5
20260905185735 77 192 1.7 1.7 0.00 0.00 0.00 83 1013.0
20260905185230 76 148 0.0 0.0 0.00 0.00 0.00 84 1012.4
20260905184725 76 167 0.0 0.0 0.00 0.00 0.00 85 1012.3
20260905184224 76 162 0.0 0.9 0.00 0.00 0.00 85 1012.3
20260905183718 76 168 0.0 0.9 0.00 0.00 0.00 85 1013.0
20260905183213 77 250 0.9 5.2 0.00 0.00 0.00 84 1013.6
20260905182712 78 175 1.7 2.6 0.00 0.00 0.00 79 1013.8
20260905182212 79 150 2.6 3.5 0.00 0.00 0.00 74 1014.3
20260905181708 80 182 1.7 2.6 0.00 0.00 0.00 68 1014.1
20260905181206 80 198 0.9 2.6 0.00 0.00 0.00 70 1014.2
20260905180701 82 85 1.7 3.5 0.00 0.00 0.00 66 1013.6
20260905180157 84 73 0.9 6.1 0.00 0.00 0.00 62 1014.1
20260905175655 87 94 1.7 5.2 0.00 0.00 0.00 57 1014.4
20260905175151 88 192 2.6 8.7 0.00 0.00 0.00 57 1014.4
20260905174647 91 290 4.3 6.1 0.00 0.00 0.00 62 1013.8
20260905174142 91 148 0.9 3.5 0.00 0.00 0.00 61 1014.0
20260905173638 92 105 1.7 2.6 0.00 0.00 0.00 60 1013.8
20260905173134 93 125 3.5 3.5 0.00 0.00 0.00 58 1013.8
20260905172632 94 149 1.7 6.1 0.00 0.00 0.00 58 1014.3
20260905172127 94 315 3.5 6.1 0.00 0.00 0.00 56 1014.5
20260905171623 94 320 2.6 3.5 0.00 0.00 0.00 57 1014.3
20260905171119 94 265 3.5 7.0 0.00 0.00 0.00 56 1014.7
20260905170616 94 249 3.5 8.7 0.00 0.00 0.00 58 1014.6
20260905170111 94 316 6.1 8.7 0.00 0.00 0.00 56 1014.8
20260905165605 94 258 6.1 8.7 0.00 0.00 0.00 57 1014.8
20260905165101 94 224 4.3 6.1 0.00 0.00 0.00 55 1014.8
20260905164555 94 314 1.7 2.6 0.00 0.00 0.00 55 1014.8
20260905164049 94 269 4.3 7.0 0.00 0.00 0.00 57 1014.9
20260905163546 94 170 0.9 8.7 0.00 0.00 0.00 56 1014.9
20260905163041 95 85 1.7 2.6 0.00 0.00 0.00 54 1015.1
20260905162538 95 217 2.6 3.5 0.00 0.00 0.00 56 1015.1
20260905162037 93 235 6.1 6.1 0.00 0.00 0.00 58 1015.0
20260905161532 93 191 3.5 6.1 0.00 0.00 0.00 61 1014.9
20260905161030 92 120 1.7 5.2 0.00 0.00 0.00 61 1015.0
20260905160528 92 174 2.6 5.2 0.00 0.00 0.00 64 1015.0
20260905160028 92 166 0.0 2.6 0.00 0.00 0.00 63 1015.1
20260905155528 91 49 0.9 3.5 0.00 0.00 0.00 64 1015.3
20260905155026 91 146 1.7 5.2 0.00 0.00 0.00 64 1015.4
20260905154522 91 179 0.0 1.7 0.00 0.00 0.00 63 1015.3
20260905154017 90 177 1.7 5.2 0.00 0.00 0.00 66 1015.4
20260905153513 90 274 4.3 6.1 0.00 0.00 0.00 65 1015.5
20260905153013 90 177 0.0 1.7 0.00 0.00 0.00 65 1015.3
20260905152513 90 164 1.7 5.2 0.00 0.00 0.00 65 1015.2
20260905152008 89 167 0.9 5.2 0.00 0.00 0.00 66 1015.3
20260905151503 89 285 2.6 3.5 0.00 0.00 0.00 65 1015.4
20260905150958 89 180 1.7 5.2 0.00 0.00 0.00 66 1015.4
20260905150453 89 218 2.6 5.2 0.00 0.00 0.00 67 1015.3
20260905145950 88 176 0.9 5.2 0.00 0.00 0.00 71 1015.3
20260905145445 88 224 1.7 5.2 0.00 0.00 0.00 71 1015.4
20260905144944 87 167 1.7 3.5 0.00 0.00 0.00 73 1015.5
20260905144440 86 162 0.9 2.6 0.00 0.00 0.00 73 1015.4
20260905143939 86 204 2.6 3.5 0.00 0.00 0.00 74 1015.6
20260905143432 85 158 0.0 1.7 0.00 0.00 0.00 75 1015.5
20260905142932 84 169 1.7 3.5 0.00 0.00 0.00 75 1015.5
20260905142431 84 168 0.9 2.6 0.00 0.00 0.00 75 1015.4
20260905141927 84 192 1.7 2.6 0.00 0.00 0.00 75 1015.4
20260905141422 83 176 0.9 3.5 0.00 0.00 0.00 78 1015.4
20260905140918 83 174 0.9 3.5 0.00 0.00 0.00 77 1015.3
20260905140413 82 158 0.0 2.6 0.00 0.00 0.00 79 1015.3
20260905135912 82 273 2.6 3.5 0.00 0.00 0.00 80 1015.2
20260905135408 82 185 2.6 3.5 0.00 0.00 0.00 80 1015.4
20260905134903 82 185 0.9 3.5 0.00 0.00 0.00 79 1015.2
20260905134401 82 189 1.7 2.6 0.00 0.00 0.00 80 1015.4
20260905133856 81 223 1.7 2.6 0.00 0.00 0.00 80 1015.3
20260905133351 80 164 1.7 2.6 0.00 0.00 0.00 82 1015.5
20260905132851 79 124 0.9 1.7 0.00 0.00 0.00 85 1015.2
20260905132347 79 173 0.9 1.7 0.00 0.00 0.00 85 1015.3
20260905131846 79 198 1.7 2.6 0.00 0.00 0.00 85 1015.4
20260905131342 78 167 0.9 2.6 0.00 0.00 0.00 84 1015.4
20260905130837 78 172 0.0 0.9 0.00 0.00 0.00 86 1015.4
20260905130335 78 256 1.7 1.7 0.00 0.00 0.00 86 1015.6
20260905125832 77 176 0.9 1.7 0.00 0.00 0.00 87 1015.6
20260905125332 77 160 0.9 2.6 0.00 0.00 0.00 87 1015.7
20260905124828 76 247 1.7 2.6 0.00 0.00 0.00 88 1015.5
20260905124324 76 155 0.0 0.9 0.00 0.00 0.00 89 1015.6
20260905123824 75 153 0.0 0.9 0.00 0.00 0.00 89 1015.5
20260905123321 75 191 1.7 2.6 0.00 0.00 0.00 89 1015.5
20260905122820 75 229 1.7 2.6 0.00 0.00 0.00 90 1015.6
20260905122320 74 161 0.0 0.0 0.00 0.00 0.00 91 1015.6
20260905121815 74 161 0.0 0.0 0.00 0.00 0.00 92 1015.6
20260905121312 73 168 0.0 0.0 0.00 0.00 0.00 94 1015.6
20260905120810 73 150 0.0 0.0 0.00 0.00 0.00 96 1015.5
20260905120305 72 158 0.0 0.0 0.00 0.00 0.00 97 1015.6
20260905115800 72 159 0.0 0.0 0.00 0.00 0.00 98 1015.3
20260905115300 72 165 0.0 0.0 0.00 0.00 0.00 98 1015.4
20260905114800 72 157 0.0 0.0 0.00 0.00 0.00 99 1015.3
20260905114259 72 152 0.0 0.0 0.00 0.00 0.00 99 1015.0
20260905113758 72 159 0.0 0.0 0.00 0.00 0.00 99 1015.1
20260905113254 71 156 0.0 0.0 0.00 0.00 0.00 99 1014.9
20260905112749 71 165 0.0 0.9 0.00 0.00 0.00 99 1014.9
20260905112249 71 208 0.0 0.9 0.00 0.00 0.00 99 1014.8
20260905111744 71 167 0.9 1.7 0.00 0.00 0.00 99 1015.0
20260905111238 71 165 0.0 1.7 0.00 0.00 0.00 99 1014.8
20260905110738 71 128 0.0 0.0 0.00 0.00 0.00 99 1014.8
20260905110232 71 164 0.0 0.0 0.00 0.00 0.00 99 1014.9